Kristiansund, Norway

7:11 AM CEST on June 19, 2018 (GMT +0200)
Kvernberget

Weather History for ENKB - March, 2013

Change the Weather History Date:

Wednesday, March 13, 2013

  Actual Average Record
Temperature  
Mean Temperature 22 °F -  
Max Temperature 30 °F 43 °F 55 °F (2015)
Min Temperature 15 °F 33 °F 15 °F (2013)
Degree Days  
Heating Degree Days 42    
Moisture  
Dew Point 19 °F    
Average Humidity 81    
Maximum Humidity 100    
Minimum Humidity 47    
Precipitation  
Precipitation 0.00 in - - ()
Sea Level Pressure  
Sea Level Pressure 29.77 in    
Wind  
Wind Speed 4 mph ()    
Max Wind Speed 20 mph    
Max Gust Speed -    
Visibility 5.6 miles    
Events Snow    
Averages and records for this station are not official NWS values.
T = Trace of Precipitation, MM = Missing Value Source: Averaged Metar Reports

Daily Weather History Graph

Daily Weather History Graph

Search for Another Location

Airport or City:

Astronomy

Mar. 13, 2013 Rise Set
Actual Time 6:53 AM CET 6:24 PM CET
Civil Twilight 6:07 AM CET 7:10 PM CET
Nautical Twilight 5:13 AM CET 8:04 PM CET
Astronomical Twilight 4:15 AM CET 9:03 PM CET
Moon 6:41 AM CET (3/13) 9:19 PM CET (3/13)
Length of Visible Light 13h 02m
Length of Day
11h 31m
Waxing Crescent, 3% of the Moon is Illuminated
Mar 13
Waxing Crescent
Mar 19
First Quarter
Mar 27
Full
Apr 3
Last Quarter
Apr 10
New

Hourly Weather History & Observations

Time (CET) Temp. Windchill Dew Point Humidity Pressure Visibility Wind Dir Wind Speed Gust Speed Precip Events Conditions
12:20 AM 21.2 °F 16.4 °F 12.2 °F 68% 29.80 in 6.2 mi East 3.5 mph - N/A   Unknown
12:50 AM 17.6 °F - 12.2 °F 79% 29.80 in 6.2 mi Variable 1.2 mph - N/A   Partly Cloudy
1:20 AM 17.6 °F - 14.0 °F 86% 29.80 in 6.2 mi Variable 1.2 mph - N/A   Unknown
1:50 AM 15.8 °F - 12.2 °F 86% 29.80 in 6.2 mi Calm Calm - N/A   Unknown
2:20 AM 17.6 °F - 14.0 °F 86% 29.80 in 6.2 mi Variable 1.2 mph - N/A   Unknown
2:50 AM 17.6 °F - 14.0 °F 86% 29.80 in 6.2 mi Variable 1.2 mph - N/A   Unknown
3:20 AM 15.8 °F - 12.2 °F 86% 29.80 in 6.2 mi East 2.3 mph - N/A   Unknown
3:50 AM 17.6 °F 12.3 °F 17.6 °F 100% 29.80 in 6.2 mi East 3.5 mph - N/A   Unknown
4:20 AM 17.6 °F 12.3 °F 15.8 °F 93% 29.80 in 6.2 mi East 3.5 mph - N/A   Unknown
4:50 AM 15.8 °F - 14.0 °F 93% 29.80 in 6.2 mi Variable 2.3 mph - N/A   Unknown
5:20 AM 15.8 °F - 14.0 °F 93% 29.80 in 6.2 mi Variable 2.3 mph - N/A   Unknown
5:50 AM 17.6 °F 12.3 °F 15.8 °F 93% 29.80 in - East 3.5 mph - N/A   Clear
6:20 AM 17.6 °F 12.3 °F 14.0 °F 86% 29.80 in 6.2 mi East 3.5 mph - N/A   Partly Cloudy
6:50 AM 17.6 °F - 15.8 °F 93% 29.80 in 6.2 mi Variable 2.3 mph - N/A   Partly Cloudy
7:20 AM 17.6 °F - 15.8 °F 93% 29.80 in 6.2 mi Variable 2.3 mph - N/A   Partly Cloudy
7:50 AM 17.6 °F - 15.8 °F 93% 29.80 in 6.2 mi Variable 2.3 mph - N/A   Partly Cloudy
8:20 AM 23.0 °F 17.0 °F 19.4 °F 86% 29.80 in 6.2 mi ESE 4.6 mph - N/A   Scattered Clouds
8:50 AM 23.0 °F 17.0 °F 17.6 °F 80% 29.80 in 6.2 mi ESE 4.6 mph - N/A   Scattered Clouds
9:20 AM 23.0 °F 15.8 °F 15.8 °F 74% 29.77 in 6.2 mi SE 5.8 mph - N/A   Mostly Cloudy
9:50 AM 24.8 °F 20.5 °F 17.6 °F 74% 29.77 in 6.2 mi SSE 3.5 mph - N/A   Mostly Cloudy
10:20 AM 24.8 °F 17.9 °F 15.8 °F 69% 29.77 in 6.2 mi SSE 5.8 mph - N/A   Mostly Cloudy
10:50 AM 26.6 °F 21.2 °F 15.8 °F 64% 29.77 in 6.2 mi SSE 4.6 mph - N/A   Mostly Cloudy
11:20 AM 28.4 °F - 15.8 °F 59% 29.77 in 6.2 mi SE 2.3 mph - N/A   Mostly Cloudy
11:50 AM 26.6 °F 22.6 °F 15.8 °F 64% 29.77 in 6.2 mi ESE 3.5 mph - N/A   Mostly Cloudy
12:20 PM 28.4 °F 23.3 °F 14.0 °F 55% 29.77 in 6.2 mi SSE 4.6 mph - N/A   Mostly Cloudy
12:50 PM 28.4 °F 21.2 °F 12.2 °F 51% 29.77 in 6.2 mi West 6.9 mph - N/A   Mostly Cloudy
1:20 PM 30.2 °F 24.3 °F 12.2 °F 47% 29.77 in 6.2 mi SW 5.8 mph - N/A   Mostly Cloudy
1:50 PM 28.4 °F 20.4 °F 15.8 °F 59% 29.77 in 6.2 mi WSW 8.1 mph - N/A   Mostly Cloudy
2:20 PM 28.4 °F 22.2 °F 17.6 °F 64% 29.74 in 6.2 mi South 5.8 mph - N/A   Mostly Cloudy
2:50 PM 30.2 °F 23.4 °F 19.4 °F 64% 29.74 in 6.2 mi SSW 6.9 mph - N/A   Mostly Cloudy
3:20 PM 30.2 °F 20.8 °F 19.4 °F 64% 29.74 in 6.2 mi SW 11.5 mph - N/A Snow Light Snow
3:50 PM 28.4 °F 19.7 °F 23.0 °F 80% 29.74 in 6.2 mi SSW 9.2 mph - N/A   Mostly Cloudy
4:20 PM 30.2 °F 21.3 °F 21.2 °F 69% 29.71 in 6.2 mi SSW 10.4 mph - N/A   Mostly Cloudy
4:50 PM 28.4 °F 15.4 °F 21.2 °F 74% 29.74 in 2.5 mi West 19.6 mph - N/A Snow Snow Showers
5:20 PM 28.4 °F 17.0 °F 24.8 °F 86% 29.74 in 4.3 mi West 15.0 mph - N/A Snow Light Snow
5:50 PM 28.4 °F 18.5 °F 24.8 °F 86% 29.71 in 2.5 mi SSW 11.5 mph - N/A Snow Snow Showers
6:20 PM 26.6 °F 16.2 °F 24.8 °F 93% 29.71 in 6.2 mi SW 11.5 mph - N/A Snow Snow Showers
6:50 PM 28.4 °F 16.2 °F 24.8 °F 86% 29.74 in 1.2 mi West 17.3 mph - N/A Snow Snow Showers
7:20 PM 26.6 °F 18.2 °F 26.6 °F 100% 29.74 in 0.9 mi West 8.1 mph - N/A Snow Snow Showers
7:50 PM 28.4 °F 21.2 °F 26.6 °F 93% 29.74 in 4.3 mi West 6.9 mph - N/A   Mostly Cloudy
8:20 PM 26.6 °F 19.1 °F 24.8 °F 93% 29.74 in 6.2 mi West 6.9 mph - N/A   Mostly Cloudy
8:50 PM 28.4 °F 19.1 °F 26.6 °F 93% 29.74 in 6.2 mi West 10.4 mph - N/A   Mostly Cloudy
9:20 PM 28.4 °F 20.4 °F 28.4 °F 100% 29.74 in 6.2 mi North 8.1 mph - N/A   Scattered Clouds
9:50 PM 28.4 °F - 26.6 °F 93% 29.74 in 6.2 mi Variable 2.3 mph - N/A   Scattered Clouds
10:20 PM 28.4 °F 19.7 °F 26.6 °F 93% 29.74 in 0.9 mi NNE 9.2 mph - N/A Snow Snow Showers
10:50 PM 26.6 °F 18.2 °F 24.8 °F 93% 29.74 in 6.2 mi ENE 8.1 mph - N/A   Scattered Clouds
11:20 PM 26.6 °F - 24.8 °F 93% 29.77 in 6.2 mi Variable 2.3 mph - N/A   Scattered Clouds
11:50 PM 26.6 °F - 24.8 °F 93% 29.77 in 6.2 mi Variable 2.3 mph - N/A   Mostly Cloudy